Location: ?????
(55.6500°N, 37.2500°E)
Time: 04:44:38
(UTC+00:00)

Cosmos 2218 Rocket - Pass Details

Date: 19 May 2025
Orbit: 954 x 1006 km, 82.9° (Epoch: 19 June)

Event Time Altitude Azimuth Distance (km) Brightness Sun altitude
Rises 18:45:27 0° 348° (NNW) 3,744 8.4 -7.0°
Reaches altitude 10° 18:48:01 10° 350° (N) 2,787 7.6 -7.2°
Maximum altitude 18:54:27 81° 78° (ENE) 1,014 4.1 -7.7°
Drops below altitude 10° 19:00:45 10° 166° (SSE) 2,738 5.8 -8.3°
Enters shadow 19:01:15 - 166° (SSE) 2,924 5.9 -8.3°
